timestamp,wind_dir_avg,wind_spd_avg,wind_spd_max_dir,wind_spd_gust,battery_voltage,lat,long
2021-07-08 00:04:01+00:00,210.0,10.04,211.0,11.14,13.05,47.59359,-54.27349
2021-07-08 00:14:01+00:00,212.0,9.98,206.0,11.09,12.65,47.59359,-54.27349
2021-07-08 00:24:01+00:00,214.0,9.82,214.0,10.91,12.65,47.59359,-54.27349
2021-07-08 00:34:01+00:00,212.0,10.34,215.0,11.39,12.65,47.59359,-54.27349
2021-07-08 00:44:01+00:00,211.0,9.56,212.0,10.45,12.65,47.59359,-54.27349
2021-07-08 00:54:01+00:00,213.0,9.57,212.0,10.43,12.65,47.59359,-54.27349
2021-07-08 01:04:01+00:00,213.0,8.32,214.0,8.97,12.65,47.59359,-54.27349
2021-07-08 01:14:01+00:00,213.0,8.6,210.0,9.51,12.65,47.59359,-54.27349
2021-07-08 01:24:01+00:00,215.0,8.3,215.0,9.34,12.65,47.59359,-54.27349
2021-07-08 01:34:01+00:00,216.0,8.19,217.0,9.07,12.65,47.59359,-54.27349
2021-07-08 01:44:01+00:00,211.0,7.6,212.0,8.88,12.65,47.59359,-54.27349
2021-07-08 01:54:01+00:00,218.0,8.29,217.0,9.26,12.65,47.59359,-54.27349
2021-07-08 02:04:01+00:00,220.0,7.04,216.0,8.45,12.65,47.59359,-54.27349
2021-07-08 02:14:00+00:00,215.0,8.39,215.0,9.19,12.57,47.59359,-54.27349
2021-07-08 02:24:00+00:00,216.0,8.31,215.0,9.64,12.57,47.59359,-54.27349
2021-07-08 02:34:00+00:00,213.0,9.41,211.0,10.55,12.57,47.59359,-54.27349
2021-07-08 02:44:00+00:00,213.0,9.59,212.0,10.58,12.57,47.59359,-54.27349
2021-07-08 02:54:00+00:00,218.0,9.46,224.0,10.5,12.57,47.59359,-54.27349
2021-07-08 03:04:00+00:00,215.0,9.87,215.0,10.61,12.57,47.59359,-54.27349
2021-07-08 03:14:01+00:00,213.0,10.22,214.0,11.2,12.57,47.59359,-54.27349
2021-07-08 03:24:01+00:00,214.0,9.87,215.0,10.67,12.57,47.59359,-54.27349
2021-07-08 03:34:01+00:00,212.0,10.15,212.0,11.02,12.57,47.59359,-54.27349
2021-07-08 03:44:01+00:00,212.0,10.56,213.0,11.35,12.57,47.59359,-54.27349
2021-07-08 03:54:01+00:00,213.0,9.65,219.0,10.89,12.57,47.59359,-54.27349
2021-07-08 04:04:01+00:00,214.0,9.0,215.0,9.86,12.57,47.59359,-54.27349
2021-07-08 04:14:01+00:00,216.0,8.28,218.0,9.33,12.57,47.59359,-54.27349
2021-07-08 04:24:01+00:00,221.0,6.29,220.0,8.3,12.57,47.59359,-54.27349
2021-07-08 04:34:01+00:00,225.0,6.79,231.0,7.5,12.57,47.59359,-54.27349
2021-07-08 04:44:01+00:00,227.0,7.19,221.0,8.19,12.57,47.59359,-54.27349
2021-07-08 04:54:01+00:00,220.0,6.58,219.0,7.25,12.57,47.59359,-54.27349
2021-07-08 05:04:01+00:00,216.0,6.2,213.0,7.04,12.57,47.59359,-54.27349
2021-07-08 05:14:00+00:00,220.0,5.96,222.0,6.59,12.57,47.59359,-54.27349
2021-07-08 05:24:00+00:00,217.0,6.16,219.0,6.81,12.57,47.59359,-54.27349
2021-07-08 05:34:00+00:00,223.0,6.59,223.0,7.23,12.57,47.59359,-54.27349
2021-07-08 05:44:00+00:00,229.0,5.59,229.0,6.28,12.57,47.59359,-54.27349
2021-07-08 05:54:00+00:00,226.0,5.45,223.0,6.24,12.57,47.59359,-54.27349
2021-07-08 06:04:00+00:00,231.0,5.08,236.0,6.42,12.57,47.59359,-54.27349
2021-07-08 06:14:00+00:00,228.0,6.29,228.0,6.85,12.49,47.59359,-54.27349
2021-07-08 06:24:00+00:00,220.0,6.87,215.0,7.68,12.49,47.59359,-54.27349
2021-07-08 06:34:00+00:00,222.0,6.97,223.0,8.05,12.49,47.59359,-54.27349
2021-07-08 06:44:00+00:00,219.0,6.73,220.0,7.85,12.49,47.59359,-54.27349
2021-07-08 06:54:00+00:00,234.0,6.6,235.0,7.78,12.49,47.59359,-54.27349
2021-07-08 07:04:00+00:00,238.0,5.22,237.0,5.93,12.49,47.59359,-54.27349
2021-07-08 07:14:00+00:00,248.0,7.86,251.0,9.12,12.49,47.59359,-54.27349
2021-07-08 07:24:00+00:00,249.0,7.53,245.0,9.13,12.49,47.59359,-54.27349
2021-07-08 07:34:00+00:00,250.0,8.79,249.0,9.49,12.49,47.59359,-54.27349
2021-07-08 07:44:00+00:00,254.0,8.78,258.0,11.06,12.49,47.59359,-54.27349
2021-07-08 07:54:00+00:00,254.0,7.84,255.0,8.22,12.49,47.59359,-54.27349
2021-07-08 08:04:00+00:00,249.0,8.01,250.0,8.79,12.49,47.59359,-54.27349
2021-07-08 08:14:01+00:00,242.0,9.11,248.0,11.33,12.41,47.59359,-54.27349
2021-07-08 08:24:01+00:00,238.0,9.06,239.0,9.61,12.41,47.59359,-54.27349
2021-07-08 08:34:01+00:00,237.0,8.03,241.0,8.76,12.41,47.59359,-54.27349
2021-07-08 08:44:01+00:00,236.0,7.06,243.0,7.78,12.41,47.59359,-54.27349
2021-07-08 08:54:01+00:00,236.0,7.06,234.0,7.42,12.41,47.59359,-54.27349
2021-07-08 09:04:01+00:00,234.0,7.03,239.0,8.12,12.41,47.59359,-54.27349
2021-07-08 09:14:01+00:00,243.0,7.64,242.0,8.63,13.05,47.59359,-54.27349
2021-07-08 09:24:01+00:00,239.0,6.98,240.0,8.09,13.05,47.59359,-54.27349
2021-07-08 09:34:01+00:00,235.0,6.83,235.0,7.75,13.05,47.59359,-54.27349
2021-07-08 09:44:01+00:00,233.0,6.42,231.0,7.21,13.05,47.59359,-54.27349
2021-07-08 09:54:01+00:00,230.0,4.66,235.0,5.46,13.05,47.59359,-54.27349
2021-07-08 10:04:01+00:00,229.0,5.74,231.0,6.75,13.05,47.59359,-54.27349
2021-07-08 10:14:01+00:00,241.0,4.19,241.0,5.11,13.53,47.59359,-54.27349
2021-07-08 10:24:01+00:00,243.0,4.32,239.0,4.75,13.53,47.59359,-54.27349
2021-07-08 10:34:01+00:00,264.0,4.53,266.0,5.39,13.53,47.59359,-54.27349
2021-07-08 10:44:01+00:00,280.0,6.74,279.0,7.53,13.53,47.59359,-54.27349
2021-07-08 10:54:01+00:00,277.0,6.12,279.0,7.11,13.53,47.59359,-54.27349
2021-07-08 11:04:01+00:00,274.0,6.59,272.0,7.4,13.53,47.59359,-54.27349
2021-07-08 11:14:01+00:00,271.0,6.33,273.0,7.05,13.76,47.59359,-54.27349
2021-07-08 11:24:01+00:00,274.0,6.76,269.0,8.45,13.76,47.59359,-54.27349
2021-07-08 11:34:01+00:00,268.0,7.21,270.0,8.31,13.76,47.59359,-54.27349
2021-07-08 11:44:01+00:00,284.0,7.22,278.0,8.84,13.76,47.59359,-54.27349
2021-07-08 11:54:01+00:00,279.0,6.41,276.0,7.48,13.76,47.59359,-54.27349
2021-07-08 12:04:01+00:00,268.0,6.07,269.0,7.66,13.76,47.59359,-54.27349
2021-07-08 12:14:01+00:00,273.0,5.85,275.0,6.27,13.84,47.59359,-54.27349
2021-07-08 12:24:01+00:00,289.0,6.65,295.0,7.73,13.84,47.59359,-54.27349
2021-07-08 12:34:01+00:00,291.0,6.61,281.0,8.63,13.84,47.59359,-54.27349
2021-07-08 12:44:01+00:00,276.0,6.2,282.0,7.25,13.84,47.59359,-54.27349
2021-07-08 12:54:01+00:00,300.0,6.71,297.0,9.19,13.84,47.59359,-54.27349
2021-07-08 13:04:01+00:00,280.0,5.97,274.0,8.08,13.84,47.59359,-54.27349
2021-07-08 13:14:01+00:00,296.0,7.73,302.0,8.47,14.24,47.59359,-54.27349
2021-07-08 13:24:01+00:00,275.0,5.63,277.0,6.84,14.24,47.59359,-54.27349
2021-07-08 13:34:01+00:00,283.0,5.03,292.0,6.62,14.24,47.59359,-54.27349
2021-07-08 13:44:01+00:00,293.0,6.89,290.0,7.55,14.24,47.59359,-54.27349
2021-07-08 13:54:01+00:00,297.0,7.16,298.0,7.87,14.24,47.59359,-54.27349
2021-07-08 14:04:01+00:00,299.0,8.74,299.0,9.81,14.24,47.59359,-54.27349
2021-07-08 14:14:01+00:00,299.0,8.12,301.0,9.03,14.32,47.59359,-54.27349
2021-07-08 14:24:01+00:00,294.0,6.13,299.0,7.03,14.32,47.59359,-54.27349
2021-07-08 14:34:01+00:00,314.0,6.13,318.0,7.0,14.32,47.59359,-54.27349
2021-07-08 14:44:01+00:00,297.0,6.84,302.0,7.81,14.32,47.59359,-54.27349
2021-07-08 14:54:01+00:00,302.0,7.94,298.0,9.3,14.32,47.59359,-54.27349
2021-07-08 15:04:01+00:00,291.0,8.22,295.0,8.74,14.32,47.59359,-54.27349
2021-07-08 15:14:01+00:00,306.0,7.85,306.0,8.55,14.24,47.59359,-54.27349
2021-07-08 15:24:01+00:00,290.0,6.08,290.0,7.43,14.24,47.59359,-54.27349
2021-07-08 15:34:01+00:00,309.0,5.58,310.0,6.48,14.24,47.59359,-54.27349
2021-07-08 15:44:01+00:00,303.0,4.48,301.0,6.04,14.24,47.59359,-54.27349
2021-07-08 15:54:01+00:00,287.0,6.8,287.0,7.27,14.24,47.59359,-54.27349
2021-07-08 16:04:01+00:00,309.0,7.06,311.0,7.53,14.24,47.59359,-54.27349
2021-07-08 16:14:01+00:00,289.0,4.68,285.0,6.58,13.84,47.59359,-54.27349
2021-07-08 16:24:01+00:00,306.0,8.12,308.0,9.13,13.84,47.59359,-54.27349
2021-07-08 16:34:01+00:00,307.0,7.72,306.0,8.56,13.84,47.59359,-54.27349
2021-07-08 16:44:01+00:00,326.0,6.02,329.0,7.17,13.84,47.59359,-54.27349
2021-07-08 16:54:01+00:00,305.0,5.19,298.0,6.28,13.84,47.59359,-54.27349
2021-07-08 17:04:01+00:00,307.0,6.11,307.0,7.3,13.84,47.59359,-54.27349
2021-07-08 17:14:01+00:00,293.0,4.82,298.0,5.44,13.76,47.59359,-54.27349
2021-07-08 17:24:01+00:00,290.0,5.5,292.0,6.1,13.76,47.59359,-54.27349
2021-07-08 17:34:01+00:00,293.0,3.76,289.0,4.12,13.76,47.59359,-54.27349
2021-07-08 17:44:01+00:00,298.0,5.83,301.0,6.58,13.76,47.59359,-54.27349
2021-07-08 17:54:01+00:00,289.0,5.38,295.0,6.18,13.76,47.59359,-54.27349
2021-07-08 18:04:01+00:00,270.0,4.15,268.0,5.1,13.76,47.59359,-54.27349
2021-07-08 18:14:01+00:00,280.0,4.58,284.0,5.85,14.0,47.59359,-54.27349
2021-07-08 18:24:01+00:00,304.0,6.96,302.0,8.34,14.0,47.59359,-54.27349
2021-07-08 18:34:01+00:00,63.0,5.95,55.0,7.13,14.0,47.59359,-54.27349
2021-07-08 18:44:01+00:00,74.0,6.68,70.0,8.07,14.0,47.59359,-54.27349
2021-07-08 18:54:01+00:00,64.0,5.93,65.0,7.04,14.0,47.59359,-54.27349
2021-07-08 19:04:01+00:00,69.0,5.57,66.0,7.16,14.0,47.59359,-54.27349
2021-07-08 19:14:01+00:00,66.0,5.85,68.0,7.02,13.84,47.59359,-54.27349
2021-07-08 19:24:01+00:00,69.0,7.22,69.0,8.17,13.84,47.59359,-54.27349
2021-07-08 19:34:01+00:00,70.0,6.33,72.0,7.08,13.84,47.59359,-54.27349
2021-07-08 19:44:01+00:00,71.0,7.47,72.0,8.16,13.84,47.59359,-54.27349
2021-07-08 19:54:01+00:00,68.0,8.12,69.0,8.66,13.84,47.59359,-54.27349
2021-07-08 20:04:01+00:00,70.0,7.43,72.0,8.92,13.84,47.59359,-54.27349
2021-07-08 20:14:01+00:00,71.0,4.26,56.0,6.21,13.92,47.59359,-54.27349
2021-07-08 20:24:01+00:00,74.0,4.36,60.0,6.11,13.92,47.59359,-54.27349
2021-07-08 20:34:01+00:00,77.0,3.97,82.0,5.24,13.92,47.59359,-54.27349
2021-07-08 20:44:01+00:00,74.0,5.54,65.0,6.57,13.92,47.59359,-54.27349
2021-07-08 20:54:01+00:00,68.0,8.03,67.0,9.16,13.92,47.59359,-54.27349
2021-07-08 21:04:01+00:00,70.0,7.77,66.0,8.98,13.92,47.59359,-54.27349
2021-07-08 21:14:01+00:00,71.0,8.59,73.0,9.61,13.84,47.59359,-54.27349
2021-07-08 21:24:01+00:00,70.0,7.63,74.0,8.9,13.84,47.59359,-54.27349
2021-07-08 21:34:01+00:00,70.0,7.13,72.0,8.32,13.84,47.59359,-54.27349
2021-07-08 21:44:01+00:00,68.0,5.97,70.0,6.77,13.84,47.59359,-54.27349
2021-07-08 21:54:01+00:00,70.0,6.12,67.0,7.1,13.84,47.59359,-54.27349
2021-07-08 22:04:01+00:00,79.0,4.15,75.0,5.7,13.84,47.59359,-54.27349
2021-07-08 22:14:01+00:00,70.0,5.73,79.0,7.07,13.68,47.59359,-54.27349
2021-07-08 22:24:01+00:00,74.0,5.51,72.0,6.94,13.68,47.59359,-54.27349
2021-07-08 22:34:01+00:00,79.0,3.38,94.0,4.67,13.68,47.59359,-54.27349
2021-07-08 22:44:01+00:00,70.0,3.64,66.0,4.46,13.68,47.59359,-54.27349
2021-07-08 22:54:01+00:00,86.0,4.03,85.0,6.13,13.68,47.59359,-54.27349
2021-07-08 23:04:01+00:00,93.0,3.63,100.0,7.28,13.68,47.59359,-54.27349
2021-07-08 23:14:01+00:00,77.0,4.37,94.0,8.04,13.29,47.59359,-54.27349
2021-07-08 23:24:01+00:00,86.0,3.19,89.0,5.72,13.29,47.59359,-54.27349
2021-07-08 23:34:01+00:00,106.0,3.77,123.0,5.64,13.29,47.59359,-54.27349
2021-07-08 23:44:01+00:00,92.0,2.77,117.0,4.12,13.29,47.59359,-54.27349
2021-07-08 23:54:01+00:00,82.0,2.81,83.0,4.69,13.29,47.59359,-54.27349
